Change the Weather History Date:

Thursday, September 26, 2013

  Actual Average Record
Temperature  
Mean Temperature 66 °F -  
Max Temperature 73 °F 80 °F 111 °F (1963)
Min Temperature 61 °F 62 °F 45 °F (1948)
Cooling Degree Days 2    
Growing Degree Days 16 (Base 50)    
Moisture  
Dew Point 48 °F    
Average Humidity 53    
Maximum Humidity 78    
Minimum Humidity 20    
Precipitation  
Precipitation 0.00 in - - ()
Sea Level Pressure  
Sea Level Pressure 29.79 in    
Wind  
Wind Speed 4 mph (West)    
Max Wind Speed 17 mph    
Max Gust Speed 26 mph    
Visibility 10 miles    
Events      
Averages and records for this station are not official NWS values.
T = Trace of Precipitation, MM = Missing Value Source: NWS Daily Summary

Daily Weather History Graph

Daily Weather History Graph

Search for Another Location

Airport or City:

Trip Planner

Search our weather history database for the weather conditions in past years. The results will help you decide how hot, cold, wet, or windy it might be!

Date:

Astronomy

Sep. 26, 2013 Rise Set
Actual Time 6:44 AM PDT 6:44 PM PDT
Civil Twilight 6:19 AM PDT 7:09 PM PDT
Nautical Twilight 5:50 AM PDT 7:38 PM PDT
Astronomical Twilight 5:21 AM PDT 8:07 PM PDT
Moon No Moon Rise 1:27 PM PDT (9/26)
Length of Visible Light 12h 49m
Length of Day
11h 59m
Waning Gibbous, 53% of the Moon is Illuminated
Sep 26
Waning Gibbous
Sep 26
Last Quarter
Oct 4
New
Oct 11
First Quarter
Oct 18
Full

Hourly Weather History & Observations

Time (PDT) Temp. Dew Point Humidity Pressure Visibility Wind Dir Wind Speed Gust Speed Precip Events Conditions
12:51 AM 61.0 °F 54.0 °F 78% 29.73 in 10.0 mi Calm Calm - N/A   Clear
1:51 AM 63.0 °F 54.0 °F 72% 29.73 in 10.0 mi Calm Calm - N/A   Overcast
2:51 AM 63.0 °F 54.0 °F 72% 29.73 in 10.0 mi Calm Calm - N/A   Overcast
3:26 AM 64.4 °F 53.6 °F 68% 29.74 in 10.0 mi Calm Calm - N/A   Overcast
3:51 AM 64.0 °F 53.1 °F 67% 29.73 in 10.0 mi Calm Calm - N/A   Overcast
3:58 AM 64.4 °F 53.6 °F 68% 29.73 in 10.0 mi Calm Calm - N/A   Overcast
4:51 AM 63.0 °F 53.1 °F 70% 29.73 in 10.0 mi Calm Calm - N/A   Overcast
5:51 AM 62.1 °F 53.1 °F 72% 29.74 in 10.0 mi Calm Calm - N/A   Scattered Clouds
6:51 AM 62.1 °F 50.0 °F 65% 29.76 in 10.0 mi Calm Calm - N/A   Scattered Clouds
7:51 AM 64.9 °F 43.0 °F 45% 29.78 in 10.0 mi Calm Calm - N/A   Clear
8:51 AM 69.1 °F 39.9 °F 35% 29.80 in 10.0 mi Variable 5.8 mph - N/A   Scattered Clouds
9:51 AM 72.0 °F 37.9 °F 29% 29.81 in 10.0 mi North 8.1 mph - N/A   Partly Cloudy
10:21 AM 71.6 °F 39.2 °F 31% 29.82 in 10.0 mi Variable 5.8 mph - N/A   Partly Cloudy
10:51 AM 69.1 °F 50.0 °F 51% 29.81 in 10.0 mi Variable 6.9 mph - N/A   Clear
11:51 AM 69.1 °F 52.0 °F 54% 29.81 in 10.0 mi West 11.5 mph - N/A   Clear
12:51 PM 69.1 °F 54.0 °F 58% 29.81 in 10.0 mi WSW 10.4 mph 19.6 mph N/A   Clear
1:51 PM 70.0 °F 52.0 °F 53% 29.79 in 10.0 mi WSW 16.1 mph 21.9 mph N/A   Clear
2:51 PM 70.0 °F 46.9 °F 44% 29.79 in 10.0 mi WSW 15.0 mph 24.2 mph N/A   Clear
3:51 PM 69.1 °F 52.0 °F 54% 29.78 in 10.0 mi WSW 17.3 mph 26.5 mph N/A   Clear
4:51 PM 68.0 °F 51.1 °F 55% 29.78 in 10.0 mi WSW 16.1 mph 25.3 mph N/A   Clear
5:51 PM 69.1 °F 51.1 °F 53% 29.78 in 10.0 mi WSW 10.4 mph 17.3 mph N/A   Clear
6:51 PM 66.9 °F 50.0 °F 54% 29.81 in 10.0 mi SW 4.6 mph - N/A   Clear
7:51 PM 66.9 °F 50.0 °F 54% 29.83 in 10.0 mi SSW 5.8 mph - N/A   Clear
8:51 PM 64.9 °F 52.0 °F 63% 29.85 in 10.0 mi Calm Calm - N/A   Clear
9:51 PM 66.0 °F 37.0 °F 34% 29.87 in 10.0 mi North 5.8 mph - N/A   Clear
10:51 PM 70.0 °F 27.0 °F 20% 29.87 in 10.0 mi Variable 5.8 mph - N/A   Clear
11:51 PM 68.0 °F 28.9 °F 23% 29.88 in 10.0 mi North 4.6 mph - N/A   Clear